sat.trackr.live / text

‹ back to catalog

SAKHACUBE-CHOLBON (RS1*)

NORAD 67290 · 2025-313AU

PAYLOAD ACTIVE UNKNOWN

§ Identity

Operator
Country
CIS
Launch date
2025-12-28
Launch site
VOSTO
Launch vehicle
Mass (kg)
RCS (m²)

External: N2YO · Heavens-Above · Gunter

§ Orbital elements

Epoch: 2026-09-19T11:24:25.020576Z

Period
94.34 min
Inclination
97.3858°
Eccentricity
0.0009480
Mean motion
15.26386511 rev/d
Perigee alt
480.1 km
Apogee alt
493.1 km
Semi-major
6,864.8 km
B*
2.5897e-4
RAAN
336.3909°
Arg perigee
32.4435°
Mean anomaly
327.7385°
Rev number
4,035

§ Raw data

SAKHACUBE-CHOLBON (RS1*)1 67290U 25313AU  26262.47528959  .00006672  00000+0  25897-3 0  99992 67290  97.3858 336.3909 0009480  32.4435 327.7385 15.26386511 40356

JSON: /api/v1/satellites/67290 · /tle

For live sub-satellite position, see the globe view (requires WebGL).

§ Visibility from observer

Set your observer location to see the next 7 days of passes ≥ 10°. The values pass through the URL so the page stays shareable.

No JS? Fill the form by hand. The geolocation button needs JavaScript.

§ Radio — SatNOGS DB

ModeDescriptionDownlinkUplink
GMSK USP Mode U - GMSK2k4 - USP 437.350 MHz
GMSK Mode U - GMSK9k6 - USP 437.350 MHz
SSTV SSTV 437.350 MHz

3 transmitters · refreshed weekly from db.satnogs.org